Flag for Germany Weather past 2 weeks in Öhringen, Baden-Württemberg, Germany

Now
63 °F

Low clouds.


Feels Like: 63 °F
Forecast: 63 / 76 °F
Wind: 2 mph from West

Location: Oehringen

Current Time: Jul 29, 2014 at 11:02:29 AM

Latest Report: Jul 29, 2014 at 10:00 AM


Visibility: 4 mi

Pressure: 29.79 "Hg

Humidity: 94%

Dew point: 61 °F

Location of ÖhringenLocation

Historic Weather in Öhringen — Graph

°F

Öhringen temperature yesterday

Maximum temperature yesterday: 84 °F (at 4:00 PM)
Minimum temperature yesterday: 60 °F (at 6:00 AM)
Average temperature yesterday: 72 °F

Past Weeks' High & Low Weather Summary

 TemperatureHumidityPressure
High93 °F (Jul 19, 5:00 PM)98% (Jul 22, 4:00 AM)30.20 "Hg (Jul 22, 4:00 AM)
Low56 °F (Jul 16, 6:00 AM)21% (Jul 19, 5:00 PM)29.72 "Hg (Jul 28, 7:00 PM)
Average71 °F66%29.95 "Hg
* Reported Jul 14 10:00 AM — Jul 29 10:00 AM, Öhringen, Weather by CustomWeather, © 2014

Note: Actual official high and low records may vary slightly from our data, if they occured in-between our weather recording intervals... More about our weather records

Advertising

Öhringen weather history for previous 24 hours

 ConditionsComfort  
Time TempWeatherWind HumidityBarometerVisibility
10:00 AM
Jul 29
63 °FLow clouds.2 mph94%29.79 "Hg4 mi
9:00 AM63 °FDrizzle. Low clouds.2 mph96%29.79 "Hg2 mi
8:00 AM63 °FLow clouds.2 mph97%29.78 "Hg1 mi
7:00 AM62 °FDrizzle. Low clouds.2 mph97%29.78 "Hg1 mi
6:00 AM62 °FDrizzle. Low clouds.2 mph96%29.78 "Hg1 mi
5:00 AM62 °FFog.2 mph95%29.79 "Hg3 mi
4:00 AM63 °FLow clouds.2 mph92%29.79 "Hg10 mi
3:00 AM63 °FLow clouds.3 mph92%29.80 "Hg12 mi
2:00 AM64 °FLow clouds.3 mph91%29.80 "Hg13 mi
1:00 AM64 °FLow clouds.5 mph90%29.81 "Hg17 mi
12:00 AM65 °FLow clouds.3 mph88%29.80 "Hg11 mi
11:00 PM
Jul 28
65 °FOvercast.7 mph86%29.80 "Hg14 mi
10:00 PM71 °FOvercast.5 mph73%29.78 "Hg19 mi
9:00 PM73 °FOvercast.3 mph68%29.75 "Hg19 mi
8:00 PM79 °FOvercast.1 mph50%29.72 "Hg19 mi
7:00 PM82 °FPartly sunny.3 mph44%29.72 "Hg28 mi
6:00 PM84 °FSunny.3 mph41%29.73 "Hg22 mi
5:00 PM84 °FPassing clouds.2 mph42%29.74 "Hg19 mi
4:00 PM84 °FScattered clouds.3 mph40%29.76 "Hg22 mi
3:00 PM84 °FPassing clouds.5 mph42%29.78 "Hg25 mi
2:00 PM82 °FScattered clouds.3 mph44%29.81 "Hg16 mi
1:00 PM81 °FPassing clouds.2 mph49%29.82 "Hg16 mi
12:00 PM79 °FSunny.2 mph54%29.84 "Hg11 mi
11:00 AM74 °FOvercast.1 mph65%29.87 "Hg11 mi
Weather by CustomWeather, © 2014

See weather overviewHow to use our weather pages